Chico, CA

7:44 AM PST on February 24, 2017 (GMT -0800)
Chico Municipal

Weather History for KCIC - February, 2014

Change the Weather History Date:

Friday, February 21, 2014

  Actual Average (KOVE) Record (KOVE)
Temperature  
Mean Temperature 54 °F -  
Max Temperature 68 °F 62 °F 75 °F (1964)
Min Temperature 39 °F 41 °F 27 °F (1955)
Degree Days  
Heating Degree Days 12    
Growing Degree Days 4 (Base 50)    
Moisture  
Dew Point 37 °F    
Average Humidity 62    
Maximum Humidity 87    
Minimum Humidity 30    
Precipitation  
Precipitation 0.00 in - - ()
Sea Level Pressure  
Sea Level Pressure 30.06 in    
Wind  
Wind Speed 1 mph (NNW)    
Max Wind Speed 14 mph    
Max Gust Speed -    
Visibility 10 miles    
Events      
Averages and records for this station are not official NWS values.
T = Trace of Precipitation, MM = Missing Value Source: NWS Daily Summary

Daily Weather History Graph

Daily Weather History Graph

Search for Another Location

Airport or City:

Trip Planner

Search our weather history database for the weather conditions in past years. The results will help you decide how hot, cold, wet, or windy it might be!

Date:

Astronomy

Feb. 21, 2014 Rise Set
Actual Time 6:51 AM PST 5:50 PM PST
Civil Twilight 6:24 AM PST 6:18 PM PST
Nautical Twilight 5:53 AM PST 6:49 PM PST
Astronomical Twilight 5:21 AM PST 7:20 PM PST
Moon No Moon Rise 10:20 AM PST (2/21)
Length of Visible Light 11h 53m
Length of Day
10h 58m
Waning Gibbous, 59% of the Moon is Illuminated
Feb 21
Waning Gibbous
Feb 22
Last Quarter
Mar 1
New
Mar 8
First Quarter
Mar 16
Full

Hourly Weather History & Observations

Time (PST) Temp. Dew Point Humidity Pressure Visibility Wind Dir Wind Speed Gust Speed Precip Events Conditions
12:15 AM 48.2 °F 33.8 °F 58% 30.13 in 10.0 mi Calm Calm - N/A   Clear
12:35 AM 48.2 °F 35.6 °F 62% 30.13 in 10.0 mi Calm Calm - N/A   Clear
12:55 AM 48.2 °F 33.8 °F 58% 30.12 in 10.0 mi NE 3.5 mph - N/A   Clear
1:15 AM 46.4 °F 35.6 °F 66% 30.13 in 10.0 mi Calm Calm - N/A   Clear
1:35 AM 46.4 °F 35.6 °F 66% 30.13 in 10.0 mi Calm Calm - N/A   Clear
1:55 AM 46.4 °F 33.8 °F 62% 30.12 in 10.0 mi Calm Calm - N/A   Clear
2:15 AM 46.4 °F 33.8 °F 62% 30.12 in 10.0 mi Calm Calm - N/A   Clear
2:35 AM 46.4 °F 33.8 °F 62% 30.12 in 10.0 mi Calm Calm - N/A   Clear
2:55 AM 46.4 °F 32.0 °F 57% 30.12 in 10.0 mi Calm Calm - N/A   Clear
3:15 AM 46.4 °F 32.0 °F 57% 30.11 in 10.0 mi Calm Calm - N/A   Clear
3:35 AM 41.0 °F 35.6 °F 81% 30.11 in 10.0 mi Calm Calm - N/A   Clear
3:55 AM 39.2 °F 35.6 °F 87% 30.11 in 10.0 mi Calm Calm - N/A   Clear
4:15 AM 42.8 °F 35.6 °F 76% 30.11 in 10.0 mi Calm Calm - N/A   Clear
4:35 AM 44.6 °F 35.6 °F 71% 30.11 in 10.0 mi Calm Calm - N/A   Clear
4:55 AM 44.6 °F 35.6 °F 71% 30.11 in 10.0 mi Calm Calm - N/A   Clear
5:15 AM 39.2 °F 35.6 °F 87% 30.11 in 10.0 mi Calm Calm - N/A   Clear
5:35 AM 41.0 °F 35.6 °F 81% 30.11 in 10.0 mi Calm Calm - N/A   Clear
5:55 AM 41.0 °F 35.6 °F 81% 30.10 in 10.0 mi Calm Calm - N/A   Clear
6:15 AM 39.2 °F 35.6 °F 87% 30.10 in 10.0 mi Calm Calm - N/A   Clear
6:35 AM 41.0 °F 35.6 °F 81% 30.10 in 10.0 mi Calm Calm - N/A   Clear
6:47 AM 41.0 °F 35.6 °F 81% 30.10 in 40.0 mi Calm Calm - N/A   Scattered Clouds
7:52 AM 42.8 °F 35.6 °F 76% 30.12 in 80.0 mi Calm Calm - N/A   Partly Cloudy
8:51 AM 48.2 °F 35.6 °F 62% 30.12 in 80.0 mi Calm Calm - N/A   Scattered Clouds
9:51 AM 53.6 °F 37.4 °F 54% 30.12 in 80.0 mi North 11.5 mph - N/A   Scattered Clouds
10:47 AM 59.0 °F 37.4 °F 45% - 80.0 mi North 9.2 mph - N/A   Scattered Clouds
11:52 AM 62.6 °F 39.2 °F 42% 30.09 in 80.0 mi NW 10.4 mph - N/A   Scattered Clouds
12:47 PM 64.4 °F 37.4 °F 37% - 80.0 mi WNW 13.8 mph - N/A   Mostly Cloudy
1:50 PM 66.2 °F 35.6 °F 32% - 80.0 mi NW 11.5 mph - N/A   Mostly Cloudy
2:54 PM 68.0 °F 35.6 °F 30% - 80.0 mi WNW 11.5 mph - N/A   Mostly Cloudy
3:48 PM 68.0 °F 35.6 °F 30% 29.99 in 80.0 mi NW 8.1 mph - N/A   Mostly Cloudy
6:55 PM 57.2 °F 39.2 °F 51% 29.99 in 10.0 mi Calm Calm - N/A   Clear
7:15 PM 59.0 °F 39.2 °F 48% 29.98 in 10.0 mi Calm Calm - N/A   Clear
7:35 PM 57.2 °F 39.2 °F 51% 29.98 in 10.0 mi Calm Calm - N/A   Clear
7:55 PM 55.4 °F 39.2 °F 54% 29.99 in 10.0 mi Calm Calm - N/A   Clear
8:15 PM 55.4 °F 39.2 °F 54% 29.98 in 10.0 mi Calm Calm - N/A   Clear
8:35 PM 53.6 °F 39.2 °F 58% 29.99 in 10.0 mi Calm Calm - N/A   Clear
8:55 PM 53.6 °F 39.2 °F 58% 29.99 in 7.0 mi Calm Calm - N/A   Clear
9:15 PM 53.6 °F 39.2 °F 58% 29.99 in 10.0 mi Calm Calm - N/A   Clear
9:35 PM 53.6 °F 39.2 °F 58% 30.00 in 10.0 mi Calm Calm - N/A   Clear
9:55 PM 53.6 °F 37.4 °F 54% 29.99 in 10.0 mi Calm Calm - N/A   Clear
10:15 PM 50.0 °F 39.2 °F 66% 30.00 in 10.0 mi Calm Calm - N/A   Clear
10:35 PM 50.0 °F 39.2 °F 66% 29.99 in 10.0 mi Calm Calm - N/A   Clear
10:55 PM 51.8 °F 39.2 °F 62% 29.99 in 10.0 mi Calm Calm - N/A   Clear
11:15 PM 50.0 °F 39.2 °F 66% 30.00 in 10.0 mi Calm Calm - N/A   Clear
11:35 PM 51.8 °F 37.4 °F 58% 30.00 in 10.0 mi Calm Calm - N/A   Clear
11:55 PM 48.2 °F 39.2 °F 71% 29.99 in 10.0 mi Calm Calm - N/A   Clear